IQ5QD-13 Weather Reports


time (UTC)temp
C
wind
direction
speed
KPH
gust
KPH
rain 1hr
cm
rain 24hr
cm
rain mn
cm
humidity
%
barometer
mb
20260906103604 31 252 4.8 9.7 0.00 0.00 0.00 58 1016.3
20260906100612 31 162 3.2 4.8 0.00 0.00 0.00 57 1016.5
20260906093531 29 257 3.2 9.7 0.00 0.00 0.00 62 1016.6
20260906090556 28 159 1.6 3.2 0.00 0.00 0.00 66 1016.8
20260906083536 29 151 0.0 3.2 0.00 0.00 0.00 61 1016.7
20260906080540 26 107 0.0 1.6 0.00 0.00 0.00 71 1016.7
20260906073606 24 95 0.0 1.6 0.00 0.00 0.00 76 1016.7
20260906070530 23 112 3.2 4.8 0.00 0.00 0.00 77 1016.4
20260906063538 23 0.0 0.0 0.00 0.00 0.00 78 1016.2
20260906060556 20 0.0 0.0 0.00 0.00 0.00 87 1016.0
20260906053620 18 0.0 0.0 0.00 0.00 0.00 91 1015.9
20260906050535 17 0.0 0.0 0.00 0.00 0.00 91 1015.8
20260906043604 17 229 0.0 1.6 0.00 0.00 0.00 91 1015.6
20260906040535 17 0.0 0.0 0.00 0.00 0.00 91 1015.4
20260906033545 17 0.0 0.0 0.00 0.00 0.00 91 1015.3
20260906030612 17 0.0 0.0 0.00 0.00 0.00 91 1015.2
20260906023536 17 0.0 0.0 0.00 0.00 0.00 91 1015.2
20260906020612 18 0.0 0.0 0.00 0.00 0.00 91 1015.2
20260906013533 18 0.0 0.0 0.00 0.00 0.00 91 1015.2
20260906010556 18 0.0 0.0 0.00 0.00 0.00 91 1015.1
20260906003537 18 0.0 0.0 0.00 0.00 0.00 90 1015.2
20260906000612 19 106 1.6 3.2 0.00 0.00 0.00 90 1015.2
20260905233533 19 0.0 0.0 0.00 0.00 0.00 89 1015.1
20260905230541 19 0.0 0.0 0.00 0.00 0.00 89 1015.3
20260905223605 19 125 0.0 1.6 0.00 0.00 0.00 88 1015.2
20260905220539 20 0.0 0.0 0.00 0.00 0.00 87 1015.0
20260905213604 20 101 0.0 1.6 0.00 0.00 0.00 85 1014.9
20260905210612 21 151 1.6 1.6 0.00 0.00 0.00 83 1014.8
20260905203539 22 103 1.6 3.2 0.00 0.00 0.00 80 1014.6
20260905200613 21 6 1.6 3.2 0.00 0.00 0.00 81 1014.5
20260905193529 21 0.0 0.0 0.00 0.00 0.00 80 1014.2
20260905190543 22 99 1.6 3.2 0.00 0.00 0.00 79 1013.9
20260905183546 23 111 4.8 4.8 0.00 0.00 0.00 76 1013.7
20260905180559 25 104 1.6 4.8 0.00 0.00 0.00 71 1013.5
20260905173605 26 0.0 0.0 0.00 0.00 0.00 66 1013.3
20260905170538 28 123 1.6 3.2 0.00 0.00 0.00 58 1013.1
20260905163517 30 239 1.6 3.2 0.00 0.00 0.00 58 1013.2
20260905160522 30 241 4.8 9.7 0.00 0.00 0.00 55 1013.0
20260905153533 31 160 8.0 12.9 0.00 0.00 0.00 59 1012.7
20260905150557 31 183 9.7 20.9 0.00 0.00 0.00 59 1012.9
20260905143605 31 173 8.0 17.7 0.00 0.00 0.00 57 1013.1
20260905140539 31 170 4.8 11.3 0.00 0.00 0.00 52 1013.2
20260905133517 32 173 8.0 17.7 0.00 0.00 0.00 47 1013.5
20260905130522 32 199 8.0 14.5 0.00 0.00 0.00 49 1013.9
20260905123546 32 188 8.0 16.1 0.00 0.00 0.00 51 1014.0
20260905120522 31 176 6.4 14.5 0.00 0.00 0.00 55 1014.2
20260905113533 32 172 4.8 12.9 0.00 0.00 0.00 55 1014.4
20260905110557 31 160 8.0 12.9 0.00 0.00 0.00 58 1014.4